sat.trackr.live / text

‹ back to catalog

INMARSAT 5-F3

NORAD 40882 · 2015-042A

PAYLOAD ACTIVE UNKNOWN

§ Identity

Operator
Country
IM
Launch date
2015-08-28
Launch site
TYMSC
Launch vehicle
Mass (kg)
RCS (m²)
49.81

Purposes: comms

External: N2YO · Heavens-Above · Gunter

§ Orbital elements

Epoch: 2026-09-19T07:33:38.547072Z

Period
1,436.08 min
Inclination
0.0180°
Eccentricity
0.0001070
Mean motion
1.00272838 rev/d
Perigee alt
35,781.8 km
Apogee alt
35,790.8 km
Semi-major
42,164.4 km
B*
0.0000e+0
RAAN
149.4785°
Arg perigee
243.4372°
Mean anomaly
258.2944°
Rev number
4,051

§ Raw data

INMARSAT 5-F31 40882U 15042A   26262.31502948  .00000046  00000+0  00000+0 0  99922 40882   0.0180 149.4785 0001070 243.4372 258.2944  1.00272838 40519

JSON: /api/v1/satellites/40882 · /tle

For live sub-satellite position, see the globe view (requires WebGL).

§ Visibility from observer

Set your observer location to see the next 7 days of passes ≥ 10°. The values pass through the URL so the page stays shareable.

No JS? Fill the form by hand. The geolocation button needs JavaScript.